This is the latest recevied weather packets stored in our database for station/object SALT. If no packets are shown the sender has not sent any weather packets the latest 10 day(s).
| Time | Temp. | Humidity | Pressure | Rain* | Wind** | Luminosity | Snow |
|---|---|---|---|---|---|---|---|
| 1777781073 | 11.11° C | 47% | 1019.9 hPa | 0 mm | - | - | - |
| 1777780470 | 11.11° C | 47% | 1019.8 hPa | 0 mm | - | - | - |
| 1777779867 | 11.67° C | 47% | 1019.6 hPa | 0 mm | - | - | - |
| 1777779265 | 11.11° C | 47% | 1019.5 hPa | 0 mm | - | - | - |
| 1777778659 | 11.11° C | 48% | 1019.4 hPa | 0 mm | - | - | - |
| 1777778057 | 11.11° C | 47% | 1019.2 hPa | 0 mm | - | - | - |
| 1777777455 | 11.11° C | 46% | 1019.1 hPa | 0 mm | - | - | - |
| 1777776852 | 11.67° C | 48% | 1019.2 hPa | 0 mm | - | - | - |
| 1777776249 | 12.22° C | 47% | 1019.2 hPa | 0 mm | - | - | - |
| 1777775647 | 12.78° C | 46% | 1019.2 hPa | 0 mm | - | - | - |
| 1777775042 | 13.33° C | 45% | 1019.2 hPa | 0 mm | - | - | - |
| 1777774439 | 13.89° C | 44% | 1019.2 hPa | 0 mm | - | - | - |
| 1777773836 | 13.89° C | 41% | 1019.2 hPa | 0 mm | - | - | - |
| 1777773329 | 14.44° C | 39% | 1019.2 hPa | 0 mm | - | - | - |
| 1777773233 | 14.44° C | 39% | 1019.2 hPa | 0 mm | - | - | - |
| 1777772631 | 13.89° C | 39% | 1019.2 hPa | 0 mm | - | - | - |
| 1777772028 | 13.89° C | 40% | 1019.3 hPa | 0 mm | - | - | - |
| 1777771423 | 13.33° C | 42% | 1019.3 hPa | 0 mm | - | - | - |
| 1777770820 | 13.33° C | 42% | 1019.6 hPa | 0 mm | - | - | - |
| 1777770259 | 13.33° C | 41% | 1019.5 hPa | 0 mm | - | - | - |
| 1777770218 | 13.33° C | 41% | 1019.5 hPa | 0 mm | - | - | - |
| 1777769615 | 13.33° C | 43% | 1019.6 hPa | 0 mm | - | - | - |
| 1777769013 | 13.89° C | 40% | 1019.5 hPa | 0 mm | - | - | - |
| 1777768411 | 14.44° C | 39% | 1019.5 hPa | 0 mm | - | - | - |
| 1777767805 | 15° C | 36% | 1019.2 hPa | 0 mm | - | - | - |
* Rain latest 24 hours (hover to see other rain measurements)
** Current wind speed in m/s (hover to see current wind gust speed)